Location: Fourmile Hill
(38.6646°N, 119.2938°W)
Time: 17:53:10
(UTC+00:00)

Daily predictions for brighter satellites

Satellite Brightness Start Highest point End
(mag) Time Altitude Azimuth Time Altitude Azimuth Time Altitude Azimuth
Cosmos 1544 2.9 12:02:50 10° N 12:06:29 78° W 12:09:57 11° S
Meteor 2-9 Rocket 4.2 12:01:12 10° NNW 12:07:05 78° W 12:12:55 10° S
SL-4 R/B 4.3 12:10:09 12° S 12:10:09 12° S 12:10:32 10° S
IDEFIX/ARIANE 42P 3.1 12:05:14 10° N 12:09:59 37° WNW 12:11:44 29° WSW
STARLINK-1059 4.0 12:08:54 37° W 12:10:09 51° NW 12:14:12 10° NE
Cosmos 1300 Rocket 4.0 12:06:42 10° N 12:10:58 63° E 12:15:14 10° SSE
Cosmos 389 Rocket 2.4 12:11:00 36° SSW 12:12:17 65° W 12:15:50 10° N
CZ-2C R/B 2.2 12:09:46 10° NNE 12:14:23 86° ESE 12:18:57 10° SSW
NOSS 3-2 (C) 3.3 12:11:29 25° SW 12:14:57 73° NW 12:21:19 10° NNE
STARLINK-1057 4.1 12:13:41 32° W 12:15:08 46° NW 12:19:09 10° NE
SeaSat 1 2.7 12:10:32 10° SSE 12:15:27 74° ENE 12:20:23 10° NNW
Cosmos 1975 3.1 12:11:37 10° NNW 12:15:27 43° W 12:17:36 22° SSW
Cosmos 1048 Rocket 3.9 12:11:00 10° NNW 12:16:18 70° WSW 12:21:38 10° S
Gblst 52 Del rocket 4.4 12:12:03 10° WNW 12:17:57 51° SW 12:23:20 10° SSE
STARLINK-1034 4.2 12:18:26 28° W 12:20:06 43° NW 12:24:04 10° NE
Cosmos 1125 Rocket 3.8 12:17:55 23° SW 12:20:58 50° WNW 12:26:09 10° N
Meteor 1-13 Rocket 4.3 12:16:00 10° S 12:21:49 82° E 12:27:32 10° N
SJ-6F 4.4 12:20:43 10° NNE 12:24:51 88° E 12:29:00 10° SSW
STARLINK-1068 4.4 12:23:14 25° W 12:25:07 39° NW 12:29:02 10° NE
ASTRO E2 4.2 12:25:24 19° SSW 12:26:11 20° SSW 12:29:09 10° SE
STARLINK-1061 4.4 12:23:37 15° SSW 12:26:44 46° SE 12:30:43 10° ENE
PSLV R/B 4.1 12:22:50 10° N 12:26:53 38° WNW 12:29:24 20° SW
Cosmos 2227 Rocket 3.1 12:25:19 21° WSW 12:27:58 31° WNW 12:32:58 10° N
Cosmos 1092 Rocket 4.3 12:22:03 10° S 12:28:21 73° E 12:34:40 10° N
PSLV R/B 4.2 12:26:09 10° SSE 12:30:20 72° ENE 12:34:33 10° N
Okean 3 3.8 12:28:19 18° SW 12:31:01 41° W 12:34:59 10° N
STARLINK-1067 4.3 12:28:24 15° SSW 12:31:42 52° SE 12:35:44 10° ENE
ADEOS 3.7 12:29:23 10° N 12:34:29 54° WNW 12:39:32 10° SSW
STARLINK-1058 4.1 12:33:11 14° SSW 12:36:39 58° SE 12:40:44 10° NE
CZ-4B R/B 3.8 12:37:05 10° NNE 12:41:05 85° ESE 12:44:52 10° SSW
STARLINK-1043 3.9 12:37:58 13° SW 12:41:37 64° SE 12:45:44 10° NE
STARLINK-1065 3.9 12:39:20 12° SW 12:43:02 66° SE 12:47:09 10° NE
STARLINK-52 2.9 12:40:43 10° NW 12:43:54 60° SW 12:47:04 10° SE
Cosmos 2026 Rocket 4.3 12:39:22 10° S 12:45:28 71° E 12:51:31 10° NNE
Nadezhda 4 Rocket 4.2 12:41:07 10° SSW 12:47:11 50° W 12:53:20 10° N
CZ-4B R/B 3.1 12:47:38 15° W 12:47:55 15° W 12:50:04 10° NW
STARLINK-1063 3.7 12:47:32 11° SW 12:51:34 79° SE 12:55:42 10° NE
ALOS 2.9 12:47:44 10° NNE 12:52:22 60° E 12:56:58 10° S
STARLINK-1064 3.6 12:52:23 10° SW 12:56:32 87° SE 13:00:41 10° NE
ATLAS 3B R/B 2.6 12:50:15 10° SW 12:56:57 81° WNW 13:03:38 10° NNE
Meteor 1-23 Rocket 4.3 12:51:37 10° S 12:57:18 89° E 13:03:05 10° N
Meteor 1-31 Rocket 2.9 12:54:04 10° N 12:57:56 57° WNW 13:01:46 10° SSW
Okean 1 Rocket 3.3 12:53:35 10° N 12:57:57 76° E 13:02:19 10° SSE
STARLINK-1041 3.6 12:57:21 10° SW 13:01:30 85° NW 13:05:39 10° NE
SL-16 R/B 2.4 12:56:13 10° NW 13:01:39 48° WSW 13:07:03 10° S
Cosmos 1066 Rocket 4.4 12:57:08 10° S 13:02:57 89° W 13:08:52 10° N
FALCON 9 DEB 3.8 13:01:06 10° WNW 13:04:16 34° SW 13:07:24 10° SSE
CZ-4B R/B 3.1 13:00:44 10° N 13:04:58 67° WNW 13:09:23 10° SSW
STARLINK-1038 3.6 13:02:20 10° SW 13:06:29 78° NW 13:10:37 10° NE
FENGYUN 3A 3.8 13:02:06 10° NNE 13:07:32 83° ESE 13:12:54 10° SSW
BREEZE-M DEB (TANK) 3.6 13:08:01 10° WNW 13:09:50 15° NNW 13:11:16 10° NNE
COSMO-SKYMED 1 2.9 13:05:35 10° SSE 13:09:54 74° ENE 13:14:15 10° N
Cosmos 1818 3.7 13:04:54 10° NNW 13:10:23 85° ENE 13:15:48 10° SSE
Cosmos 1378 3.8 13:06:58 10° S 13:10:35 59° E 13:14:16 10° NNE
STARLINK-1046 3.7 13:07:19 10° SW 13:11:26 71° NW 13:15:35 10° NE
METEOR-M 4.2 13:07:21 10° NNE 13:12:43 88° ESE 13:18:04 10° SSW
USA 234 3.9 13:12:01 10° S 13:17:46 33° SW 13:23:32 10° WNW
